EN

Hourly Weather Bolshoe Naryshkino

Today, 16 April, Friday

Time Temperature Precipitation Wind Pressure Humidity
00:00 +9°C° 0.1 mm 2 mps 741 mmHg 89%
01:00 +9°C° 0.1 mm 2 mps 741 mmHg 88%
02:00 +9°C° 0.1 mm 3 mps 741 mmHg 88%
03:00 +8°C° 0 mm 3 mps 741 mmHg 89%
04:00 +7°C° 0 mm 3 mps 742 mmHg 91%
05:00 +7°C° 0 mm 2 mps 742 mmHg 92%
06:00 +8°C° 0 mm 3 mps 742 mmHg 86%
07:00 +9°C° 0 mm 3 mps 742 mmHg 79%
08:00 +10°C° 0 mm 4 mps 743 mmHg 72%
09:00 +11°C° 0 mm 4 mps 743 mmHg 67%
10:00 +12°C° 0 mm 5 mps 743 mmHg 61%
11:00 +13°C° 0 mm 5 mps 743 mmHg 55%
12:00 +14°C° 0 mm 5 mps 743 mmHg 53%
13:00 +14°C° 0 mm 5 mps 743 mmHg 51%
14:00 +14°C° 0 mm 5 mps 743 mmHg 49%
15:00 +14°C° 0 mm 4 mps 743 mmHg 53%
16:00 +13°C° 0 mm 4 mps 743 mmHg 57%
17:00 +12°C° 0 mm 3 mps 743 mmHg 61%
18:00 +11°C° 0 mm 3 mps 743 mmHg 66%
19:00 +10°C° 0 mm 2 mps 743 mmHg 72%
20:00 +8°C° 0 mm 2 mps 744 mmHg 77%
21:00 +8°C° 0 mm 2 mps 744 mmHg 78%
22:00 +7°C° 0 mm 2 mps 744 mmHg 79%
23:00 +8°C° 0 mm 1 mps 744 mmHg 80%

Tomorrow, 17 April, Saturday

Time Temperature Precipitation Wind Pressure Humidity
00:00 +7°C° 0 mm 2 mps 744 mmHg 82%
01:00 +6°C° 0 mm 2 mps 744 mmHg 83%
02:00 +6°C° 0 mm 2 mps 744 mmHg 84%
03:00 +7°C° 0 mm 1 mps 744 mmHg 84%
04:00 +7°C° 0 mm 1 mps 745 mmHg 85%
05:00 +7°C° 0 mm 1 mps 745 mmHg 85%
06:00 +8°C° 0.2 mm 1 mps 745 mmHg 82%
07:00 +9°C° 0.2 mm 1 mps 745 mmHg 80%
08:00 +10°C° 0.2 mm 1 mps 745 mmHg 77%
09:00 +9°C° 1 mm 2 mps 745 mmHg 80%
10:00 +9°C° 1 mm 2 mps 744 mmHg 84%
11:00 +9°C° 1 mm 3 mps 744 mmHg 87%
12:00 +8°C° 1.1 mm 2 mps 744 mmHg 89%
13:00 +7°C° 1.1 mm 2 mps 744 mmHg 91%
14:00 +6°C° 1.1 mm 2 mps 744 mmHg 93%
15:00 +6°C° 0.4 mm 2 mps 744 mmHg 93%
16:00 +7°C° 0.4 mm 1 mps 744 mmHg 93%
17:00 +7°C° 0.4 mm 1 mps 744 mmHg 93%
18:00 +7°C° 0.1 mm 1 mps 744 mmHg 93%
19:00 +7°C° 0.1 mm 1 mps 744 mmHg 94%
20:00 +7°C° 0.1 mm 1 mps 744 mmHg 94%
21:00 +7°C° 0.3 mm 1 mps 744 mmHg 94%
22:00 +6°C° 0.3 mm 2 mps 744 mmHg 94%
23:00 +6°C° 0.3 mm 2 mps 744 mmHg 94%

Day after tomorrow, 18 April, Sunday

Time Temperature Precipitation Wind Pressure Humidity
00:00 +6°C° 0.2 mm 2 mps 744 mmHg 94%
01:00 +5°C° 0.2 mm 3 mps 744 mmHg 94%
02:00 +4°C° 0.2 mm 3 mps 744 mmHg 93%
03:00 +4°C° 0.5 mm 3 mps 744 mmHg 94%
04:00 +4°C° 0.5 mm 3 mps 744 mmHg 94%
05:00 +4°C° 0.5 mm 3 mps 745 mmHg 94%
06:00 +4°C° 0 mm 3 mps 745 mmHg 89%
07:00 +5°C° 0 mm 3 mps 745 mmHg 84%
08:00 +7°C° 0 mm 3 mps 745 mmHg 80%
09:00 +7°C° 0 mm 3 mps 745 mmHg 75%
10:00 +8°C° 0 mm 3 mps 746 mmHg 71%
11:00 +8°C° 0 mm 3 mps 746 mmHg 67%
12:00 +9°C° 0 mm 3 mps 746 mmHg 64%
13:00 +9°C° 0 mm 3 mps 746 mmHg 61%
14:00 +10°C° 0 mm 3 mps 746 mmHg 58%
15:00 +10°C° 0 mm 2 mps 746 mmHg 61%
16:00 +9°C° 0 mm 2 mps 745 mmHg 64%
17:00 +9°C° 0 mm 2 mps 745 mmHg 67%
18:00 +8°C° 0 mm 2 mps 746 mmHg 72%
19:00 +7°C° 0 mm 2 mps 746 mmHg 76%
20:00 +7°C° 0 mm 2 mps 746 mmHg 81%
21:00 +6°C° 0.4 mm 2 mps 746 mmHg 83%
22:00 +6°C° 0.4 mm 2 mps 746 mmHg 86%
23:00 +6°C° 0.4 mm 2 mps 745 mmHg 88%

19 April, Monday

Time Temperature Precipitation Wind Pressure Humidity
00:00 +6°C° 0.2 mm 2 mps 745 mmHg 88%
01:00 +6°C° 0.2 mm 2 mps 745 mmHg 88%
02:00 +5°C° 0.2 mm 3 mps 745 mmHg 87%
03:00 +5°C° 0.1 mm 3 mps 745 mmHg 87%
04:00 +5°C° 0.1 mm 3 mps 745 mmHg 87%
05:00 +5°C° 0.1 mm 3 mps 745 mmHg 87%
06:00 +5°C° 0.1 mm 3 mps 745 mmHg 84%
07:00 +7°C° 0.1 mm 3 mps 745 mmHg 82%
08:00 +8°C° 0.1 mm 3 mps 745 mmHg 79%
09:00 +9°C° 0 mm 3 mps 745 mmHg 74%
10:00 +8°C° 0 mm 4 mps 745 mmHg 70%
11:00 +10°C° 0 mm 4 mps 745 mmHg 66%
12:00 +11°C° 0 mm 4 mps 745 mmHg 62%
13:00 +12°C° 0 mm 4 mps 744 mmHg 58%
14:00 +12°C° 0 mm 5 mps 744 mmHg 54%
15:00 +12°C° 0 mm 4 mps 744 mmHg 57%
16:00 +12°C° 0 mm 4 mps 743 mmHg 59%
17:00 +11°C° 0 mm 4 mps 743 mmHg 62%
18:00 +11°C° 0 mm 4 mps 743 mmHg 65%
19:00 +10°C° 0 mm 4 mps 742 mmHg 69%
20:00 +8°C° 0 mm 4 mps 742 mmHg 72%
21:00 +8°C° 0.4 mm 5 mps 741 mmHg 78%
22:00 +7°C° 0.4 mm 6 mps 741 mmHg 85%
23:00 +6°C° 0.4 mm 7 mps 740 mmHg 91%

20 April, Tuesday

Time Temperature Precipitation Wind Pressure Humidity
00:00 +6°C° 0.5 mm 7 mps 740 mmHg 91%
01:00 +5°C° 0.5 mm 7 mps 739 mmHg 91%
02:00 +5°C° 0.5 mm 7 mps 738 mmHg 91%
03:00 +5°C° 0.4 mm 7 mps 737 mmHg 92%
04:00 +5°C° 0.4 mm 7 mps 736 mmHg 92%
05:00 +5°C° 0.4 mm 7 mps 736 mmHg 92%
06:00 +5°C° 2.2 mm 8 mps 734 mmHg 92%
07:00 +5°C° 2.2 mm 9 mps 733 mmHg 92%
08:00 +5°C° 2.2 mm 10 mps 732 mmHg 92%
09:00 +6°C° 2.8 mm 10 mps 731 mmHg 92%
10:00 +6°C° 2.8 mm 10 mps 730 mmHg 91%
11:00 +7°C° 2.8 mm 11 mps 728 mmHg 90%
12:00 +7°C° 2 mm 10 mps 728 mmHg 91%
13:00 +8°C° 2 mm 9 mps 727 mmHg 92%
14:00 +9°C° 2 mm 8 mps 727 mmHg 92%
15:00 +9°C° 1.2 mm 8 mps 727 mmHg 88%
16:00 +10°C° 1.2 mm 8 mps 727 mmHg 84%
17:00 +10°C° 1.2 mm 8 mps 727 mmHg 79%
18:00 +9°C° 0.4 mm 7 mps 727 mmHg 82%
19:00 +8°C° 0.4 mm 7 mps 727 mmHg 85%
20:00 +8°C° 0.4 mm 6 mps 727 mmHg 87%
21:00 +8°C° 0.5 mm 6 mps 727 mmHg 88%
22:00 +8°C° 0.5 mm 6 mps 727 mmHg 89%
23:00 +6°C° 0.5 mm 7 mps 726 mmHg 89%

21 April, Wednesday

Time Temperature Precipitation Wind Pressure Humidity
00:00 +5°C° 0.3 mm 7 mps 727 mmHg 91%
01:00 +3°C° 0.3 mm 7 mps 728 mmHg 94%
02:00 +2°C° 0.3 mm 7 mps 729 mmHg 96%
03:00 +3°C° 0.1 mm 7 mps 730 mmHg 92%
04:00 +3°C° 0.1 mm 7 mps 731 mmHg 89%
05:00 +4°C° 0.1 mm 7 mps 732 mmHg 85%
06:00 +4°C° 0.1 mm 8 mps 732 mmHg 85%
07:00 +4°C° 0.1 mm 8 mps 733 mmHg 84%
08:00 +5°C° 0.1 mm 8 mps 734 mmHg 83%
09:00 +5°C° 0.1 mm 8 mps 734 mmHg 83%
10:00 +5°C° 0.1 mm 8 mps 735 mmHg 82%
11:00 +5°C° 0.1 mm 8 mps 735 mmHg 82%
12:00 +5°C° 0.1 mm 8 mps 736 mmHg 82%
13:00 +5°C° 0.1 mm 8 mps 736 mmHg 82%
14:00 +5°C° 0.1 mm 8 mps 736 mmHg 82%
15:00 +5°C° 0.2 mm 8 mps 737 mmHg 83%
16:00 +5°C° 0.2 mm 7 mps 737 mmHg 83%
17:00 +5°C° 0.2 mm 7 mps 738 mmHg 84%
18:00 +5°C° 0.1 mm 7 mps 738 mmHg 85%
19:00 +5°C° 0.1 mm 6 mps 738 mmHg 86%
20:00 +5°C° 0.1 mm 6 mps 739 mmHg 87%
21:00 +5°C° 0 mm 6 mps 739 mmHg 86%
22:00 +5°C° 0 mm 6 mps 739 mmHg 85%
23:00 +5°C° 0 mm 6 mps 740 mmHg 83%
Show more

We Need Your Consent

Meteoprog and our Service Providers may store and access personal data such as cookies, device identifiers or other similar technologies on your device and process such data to personalise content and ads, as well as provide social media features and to analyse the traffic.

  • Store and/or access information on your device

    Cookies, device identifiers or other information can be stored or accessed on your device for the purposes indicated above.

  • Personalised ads and content, ad and content measurement, audience insights, and products development

    Ads and content can be personalised based on a profile. More data can be added to better personalise ads and content. Ad and content performance can be measured. Insights about the audience who saw the ads and content can be derived. Such data can be used to develop or improve user’s experience, systems and software.

By clicking ‘I Agree’ you will allow the use of indicated cookies, device identifiers, web beacons or other similar technologies. Your settings can be changed in the browser on your device.

For certain purposes, legitimate interests may be relied on, rather than consent. You can read more about this in our Privacy and Cookie Policy.